When you browse on this site, cookies collect data to enhance your experience and personalize the content and advertising you see.
Visit our Privacy Policy to learn more. By continuing to use the site, you agree to this use of cookies and data.
  • In Hungary
  • List of Countries
  • For 7 days
  • Water Temperature
  • Satellite Maps
  • Weather Map
  • News
  • Weather Widgets
  • user-avatar
    Login

    Hourly Weather Uttar Pradesh

    Today, 10 December, Monday

    Time Temperature Precipitation Wind Pressure Humidity
    00:00 +18°C° 0 mm 1 mps 747 mmHg 41%
    01:00 +18°C° 0 mm 1 mps 747 mmHg 43%
    02:00 +16°C° 0 mm 1 mps 747 mmHg 44%
    03:00 +16°C° 0 mm 1 mps 747 mmHg 46%
    04:00 +16°C° 0 mm 1 mps 747 mmHg 48%
    05:00 +14°C° 0 mm 0 mps 747 mmHg 53%
    06:00 +16°C° 0 mm 1 mps 747 mmHg 52%
    07:00 +18°C° 0 mm 1 mps 748 mmHg 51%
    08:00 +18°C° 0 mm 1 mps 749 mmHg 50%
    09:00 +20°C° 0 mm 1 mps 749 mmHg 46%
    10:00 +22°C° 0 mm 1 mps 749 mmHg 41%
    11:00 +23°C° 0 mm 1 mps 749 mmHg 37%
    12:00 +24°C° 0 mm 1 mps 748 mmHg 35%
    13:00 +25°C° 0 mm 1 mps 748 mmHg 33%
    14:00 +25°C° 0 mm 1 mps 747 mmHg 31%
    15:00 +24°C° 0 mm 1 mps 747 mmHg 33%
    16:00 +23°C° 0 mm 1 mps 747 mmHg 36%
    17:00 +19°C° 0 mm 0 mps 746 mmHg 38%
    18:00 +19°C° 0 mm 0 mps 747 mmHg 39%
    19:00 +18°C° 0 mm 0 mps 747 mmHg 40%
    20:00 +18°C° 0 mm 0 mps 747 mmHg 41%
    21:00 +19°C° 0 mm 1 mps 747 mmHg 43%
    22:00 +19°C° 0 mm 1 mps 748 mmHg 44%
    23:00 +19°C° 0 mm 1 mps 748 mmHg 45%

    Tomorrow, 11 December, Tuesday

    Time Temperature Precipitation Wind Pressure Humidity
    00:00 +18°C° 0 mm 1 mps 748 mmHg 47%
    01:00 +18°C° 0 mm 1 mps 747 mmHg 48%
    02:00 +16°C° 0 mm 1 mps 747 mmHg 50%
    03:00 +16°C° 0 mm 1 mps 747 mmHg 52%
    04:00 +16°C° 0 mm 1 mps 747 mmHg 53%
    05:00 +15°C° 0 mm 1 mps 747 mmHg 55%
    06:00 +16°C° 0 mm 1 mps 748 mmHg 54%
    07:00 +18°C° 0 mm 1 mps 748 mmHg 52%
    08:00 +18°C° 0 mm 1 mps 749 mmHg 51%
    09:00 +20°C° 0 mm 1 mps 749 mmHg 46%
    10:00 +22°C° 0 mm 1 mps 749 mmHg 40%
    11:00 +24°C° 0 mm 1 mps 750 mmHg 35%
    12:00 +24°C° 0 mm 1 mps 749 mmHg 33%
    13:00 +23°C° 0 mm 0 mps 749 mmHg 30%
    14:00 +23°C° 0 mm 0 mps 748 mmHg 28%
    15:00 +22°C° 0 mm 0 mps 748 mmHg 31%
    16:00 +21°C° 0 mm 0 mps 748 mmHg 33%
    17:00 +20°C° 0 mm 0 mps 748 mmHg 35%
    18:00 +21°C° 0 mm 1 mps 748 mmHg 37%
    19:00 +21°C° 0 mm 1 mps 748 mmHg 38%
    20:00 +20°C° 0 mm 1 mps 749 mmHg 40%
    21:00 +20°C° 0 mm 1 mps 749 mmHg 42%
    22:00 +19°C° 0 mm 1 mps 749 mmHg 43%
    23:00 +18°C° 0 mm 2 mps 749 mmHg 45%

    Day after tomorrow, 12 December, Wednesday

    Time Temperature Precipitation Wind Pressure Humidity
    00:00 +18°C° 0 mm 1 mps 748 mmHg 46%
    01:00 +18°C° 0 mm 1 mps 748 mmHg 48%
    02:00 +16°C° 0 mm 1 mps 748 mmHg 49%
    03:00 +16°C° 0 mm 1 mps 748 mmHg 50%
    04:00 +16°C° 0 mm 1 mps 748 mmHg 51%
    05:00 +15°C° 0 mm 1 mps 748 mmHg 52%
    06:00 +16°C° 0 mm 1 mps 749 mmHg 51%
    07:00 +18°C° 0 mm 1 mps 750 mmHg 50%
    08:00 +18°C° 0 mm 1 mps 751 mmHg 49%
    09:00 +20°C° 0 mm 1 mps 751 mmHg 44%
    10:00 +22°C° 0 mm 1 mps 751 mmHg 39%
    11:00 +24°C° 0 mm 1 mps 751 mmHg 35%
    12:00 +24°C° 0 mm 1 mps 751 mmHg 32%
    13:00 +25°C° 0 mm 1 mps 750 mmHg 30%
    14:00 +25°C° 0 mm 1 mps 749 mmHg 28%
    15:00 +24°C° 0 mm 1 mps 749 mmHg 30%
    16:00 +23°C° 0 mm 1 mps 749 mmHg 33%
    17:00 +22°C° 0 mm 1 mps 748 mmHg 35%
    18:00 +21°C° 0 mm 1 mps 749 mmHg 36%
    19:00 +21°C° 0 mm 1 mps 749 mmHg 37%
    20:00 +20°C° 0 mm 1 mps 750 mmHg 38%
    21:00 +19°C° 0 mm 1 mps 750 mmHg 38%
    22:00 +19°C° 0 mm 1 mps 750 mmHg 38%
    23:00 +18°C° 0 mm 1 mps 750 mmHg 37%

    13 December, Thursday

    Time Temperature Precipitation Wind Pressure Humidity
    00:00 +18°C° 0 mm 1 mps 750 mmHg 37%
    01:00 +18°C° 0 mm 1 mps 750 mmHg 36%
    02:00 +16°C° 0 mm 1 mps 749 mmHg 36%
    03:00 +16°C° 0 mm 1 mps 749 mmHg 35%
    04:00 +16°C° 0 mm 1 mps 749 mmHg 35%
    05:00 +15°C° 0 mm 1 mps 749 mmHg 34%
    06:00 +16°C° 0 mm 1 mps 750 mmHg 34%
    07:00 +16°C° 0 mm 1 mps 751 mmHg 34%
    08:00 +18°C° 0 mm 1 mps 751 mmHg 33%
    09:00 +20°C° 0 mm 1 mps 751 mmHg 30%
    10:00 +21°C° 0 mm 2 mps 751 mmHg 27%
    11:00 +23°C° 0 mm 2 mps 751 mmHg 24%
    12:00 +24°C° 0 mm 2 mps 751 mmHg 23%
    13:00 +25°C° 0 mm 2 mps 750 mmHg 22%
    14:00 +26°C° 0 mm 3 mps 749 mmHg 21%
    15:00 +24°C° 0 mm 2 mps 749 mmHg 23%
    16:00 +23°C° 0 mm 2 mps 749 mmHg 26%
    17:00 +20°C° 0 mm 2 mps 749 mmHg 29%
    18:00 +20°C° 0 mm 2 mps 749 mmHg 30%
    19:00 +19°C° 0 mm 2 mps 750 mmHg 32%
    20:00 +18°C° 0 mm 2 mps 750 mmHg 33%
    21:00 +18°C° 0 mm 2 mps 750 mmHg 35%
    22:00 +18°C° 0 mm 2 mps 750 mmHg 36%
    23:00 +17°C° 0 mm 2 mps 750 mmHg 38%

    14 December, Friday

    Time Temperature Precipitation Wind Pressure Humidity
    00:00 +17°C° 0 mm 2 mps 750 mmHg 38%
    01:00 +16°C° 0 mm 2 mps 750 mmHg 38%
    02:00 +16°C° 0 mm 2 mps 750 mmHg 39%
    03:00 +15°C° 0 mm 2 mps 750 mmHg 39%
    04:00 +15°C° 0 mm 2 mps 750 mmHg 39%
    05:00 +15°C° 0 mm 2 mps 750 mmHg 39%
    06:00 +15°C° 0 mm 2 mps 751 mmHg 38%
    07:00 +16°C° 0 mm 2 mps 751 mmHg 37%
    08:00 +16°C° 0 mm 2 mps 752 mmHg 37%
    09:00 +18°C° 0 mm 2 mps 752 mmHg 33%
    10:00 +20°C° 0 mm 2 mps 752 mmHg 29%
    11:00 +22°C° 0 mm 3 mps 752 mmHg 25%
    12:00 +24°C° 0 mm 3 mps 751 mmHg 24%
    13:00 +25°C° 0 mm 3 mps 751 mmHg 23%
    14:00 +25°C° 0 mm 4 mps 750 mmHg 22%
    15:00 +24°C° 0 mm 3 mps 750 mmHg 25%
    16:00 +21°C° 0 mm 3 mps 750 mmHg 27%
    17:00 +20°C° 0 mm 2 mps 750 mmHg 30%
    18:00 +19°C° 0 mm 2 mps 751 mmHg 31%
    19:00 +18°C° 0 mm 2 mps 751 mmHg 32%
    20:00 +18°C° 0 mm 2 mps 752 mmHg 34%
    21:00 +17°C° 0 mm 2 mps 751 mmHg 34%
    22:00 +17°C° 0 mm 2 mps 751 mmHg 35%
    23:00 +16°C° 0 mm 2 mps 751 mmHg 36%

    15 December, Saturday

    Time Temperature Precipitation Wind Pressure Humidity
    00:00 +16°C° 0 mm 2 mps 751 mmHg 36%
    01:00 +15°C° 0 mm 2 mps 751 mmHg 36%
    02:00 +15°C° 0 mm 2 mps 751 mmHg 36%
    03:00 +14°C° 0 mm 2 mps 751 mmHg 36%
    04:00 +14°C° 0 mm 2 mps 751 mmHg 37%
    05:00 +14°C° 0 mm 2 mps 751 mmHg 37%
    06:00 +14°C° 0 mm 2 mps 751 mmHg 36%
    07:00 +15°C° 0 mm 2 mps 752 mmHg 36%
    08:00 +15°C° 0 mm 2 mps 752 mmHg 35%
    09:00 +17°C° 0 mm 2 mps 753 mmHg 31%
    10:00 +19°C° 0 mm 2 mps 753 mmHg 27%
    11:00 +23°C° 0 mm 2 mps 753 mmHg 23%
    12:00 +23°C° 0 mm 2 mps 752 mmHg 21%
    13:00 +24°C° 0 mm 2 mps 752 mmHg 20%
    14:00 +25°C° 0 mm 2 mps 751 mmHg 18%
    15:00 +24°C° 0 mm 2 mps 751 mmHg 21%
    16:00 +21°C° 0 mm 2 mps 751 mmHg 23%
    17:00 +20°C° 0 mm 2 mps 751 mmHg 25%
    18:00 +19°C° 0 mm 2 mps 751 mmHg 26%
    19:00 +19°C° 0 mm 1 mps 752 mmHg 27%
    20:00 +18°C° 0 mm 1 mps 752 mmHg 28%
    21:00 +18°C° 0 mm 1 mps 752 mmHg 29%
    22:00 +16°C° 0 mm 1 mps 752 mmHg 30%
    23:00 +16°C° 0 mm 1 mps 752 mmHg 30%
    Show more